Ft Lauderdale, FL

7:49 PM EST on November 18, 2019 (GMT -0500)
Fort Lauderdale-Hollywood International

Weather History for KFLL - September, 2019

Change the Weather History Date:

Monday, September 23, 2019

  Actual Average Record
Temperature  
Mean Temperature 83 °F 83 °F  
Max Temperature 87 °F 89 °F 96 °F (1943)
Min Temperature 78 °F 77 °F 68 °F (1922)
Degree Days  
Heating Degree Days 0 0  
Month to date heating degree days 0 0  
Since 1 July heating degree days 0 0  
Cooling Degree Days 18 18  
Month to date cooling degree days 446 420  
Year to date cooling degree days 3833 3586  
Growing Degree Days 32 (Base 50)    
Moisture  
Dew Point 67 °F    
Average Humidity 63    
Maximum Humidity 74    
Minimum Humidity 51    
Precipitation  
Precipitation 0.00 in 0.29 in 3.35 in (1973)
Month to date precipitation 1.30 6.71  
Year to date precipitation 41.94 47.78  
Snow  
Snow 0.00 in - - ()
Month to date snowfall 0.0  
Since 1 July snowfall 0.0  
Since 1 September snowfall 0.0  
Snow Depth 0.00 in    
Sea Level Pressure  
Sea Level Pressure 29.94 in    
Wind  
Wind Speed 13 mph (NE)    
Max Wind Speed 18 mph    
Max Gust Speed 27 mph    
Visibility 10 miles    
Events      
T = Trace of Precipitation, MM = Missing Value Source: NWS Daily Summary

Daily Weather History Graph

Daily Weather History Graph

Search for Another Location

Airport or City:

Astronomy

Sep. 23, 2019 Rise Set
Actual Time 7:09 AM EDT 7:16 PM EDT
Civil Twilight 6:46 AM EDT 7:39 PM EDT
Nautical Twilight 6:19 AM EDT 8:05 PM EDT
Astronomical Twilight 5:52 AM EDT 8:32 PM EDT
Moon 1:27 AM EDT (9/23) 3:32 PM EDT (9/23)
Length of Visible Light 12h 52m
Length of Day
12h 06m
Waning Crescent, 33% of the Moon is Illuminated
Sep 23
Waning Crescent
Sep 28
New
Oct 5
First Quarter
Oct 13
Full
Oct 21
Last Quarter

Hourly Weather History & Observations

Time (EDT) Temp. Heat Index Dew Point Humidity Pressure Visibility Wind Dir Wind Speed Gust Speed Precip Events Conditions
12:53 AM 80.1 °F 82.9 °F 69.1 °F 69% 29.98 in 10.0 mi ENE 13.8 mph 21.9 mph N/A   Mostly Cloudy
1:53 AM 79.0 °F - 68.0 °F 69% 29.97 in 10.0 mi ENE 13.8 mph 19.6 mph N/A   Mostly Cloudy
2:53 AM 79.0 °F - 69.1 °F 72% 29.95 in 10.0 mi NE 12.7 mph - N/A   Mostly Cloudy
3:53 AM 78.1 °F - 68.0 °F 71% 29.94 in 10.0 mi NE 13.8 mph - N/A   Mostly Cloudy
4:53 AM 78.1 °F - 66.9 °F 68% 29.94 in 10.0 mi ENE 11.5 mph - N/A   Mostly Cloudy
5:53 AM 78.1 °F - 68.0 °F 71% 29.94 in 10.0 mi NE 10.4 mph - N/A   Scattered Clouds
6:53 AM 78.1 °F - 66.9 °F 68% 29.95 in 10.0 mi ENE 13.8 mph - N/A   Scattered Clouds
7:53 AM 79.0 °F - 66.9 °F 66% 29.95 in 10.0 mi ENE 11.5 mph 17.3 mph N/A   Partly Cloudy
8:53 AM 80.1 °F 82.3 °F 66.9 °F 64% 29.97 in 10.0 mi NE 12.7 mph - N/A   Partly Cloudy
9:53 AM 82.9 °F 85.4 °F 66.9 °F 58% 29.99 in 10.0 mi ENE 13.8 mph 20.7 mph N/A   Partly Cloudy
10:53 AM 84.0 °F 87.8 °F 69.1 °F 61% 29.99 in 10.0 mi ENE 15.0 mph 24.2 mph N/A   Mostly Cloudy
11:53 AM 84.9 °F 88.2 °F 68.0 °F 57% 29.99 in 10.0 mi ENE 15.0 mph - N/A   Mostly Cloudy
12:53 PM 86.0 °F 90.1 °F 69.1 °F 57% 29.97 in 10.0 mi NE 13.8 mph 20.7 mph N/A   Mostly Cloudy
1:53 PM 86.0 °F 88.8 °F 66.9 °F 53% 29.95 in 10.0 mi NE 16.1 mph 25.3 mph N/A   Scattered Clouds
2:53 PM 86.0 °F 89.4 °F 68.0 °F 55% 29.94 in 10.0 mi NNE 16.1 mph 20.7 mph N/A   Mostly Cloudy
3:53 PM 84.9 °F 88.2 °F 68.0 °F 57% 29.92 in 10.0 mi NNE 11.5 mph - N/A   Mostly Cloudy
4:53 PM 82.9 °F 85.0 °F 66.0 °F 56% 29.91 in 10.0 mi NE 15.0 mph - N/A   Scattered Clouds
5:53 PM 82.9 °F 85.8 °F 68.0 °F 60% 29.90 in 10.0 mi NE 17.3 mph 21.9 mph N/A   Mostly Cloudy
6:53 PM 81.0 °F 83.3 °F 66.9 °F 62% 29.90 in 10.0 mi NE 9.2 mph - N/A   Scattered Clouds
7:53 PM 80.1 °F 82.3 °F 66.9 °F 64% 29.91 in 10.0 mi NE 11.5 mph - N/A   Scattered Clouds
8:53 PM 79.0 °F - 66.9 °F 66% 29.92 in 10.0 mi NE 8.1 mph - N/A   Scattered Clouds
9:53 PM 79.0 °F - 66.0 °F 64% 29.94 in 10.0 mi NE 5.8 mph - N/A   Scattered Clouds
10:53 PM 80.1 °F 82.3 °F 66.9 °F 64% 29.93 in 10.0 mi ENE 12.7 mph 20.7 mph N/A   Mostly Cloudy
11:53 PM 79.0 °F - 66.0 °F 64% 29.92 in 10.0 mi ENE 10.4 mph - N/A   Scattered Clouds